This is the latest recevied weather packets stored in our database for station/object WY7EM. If no packets are shown the sender has not sent any weather packets the latest 10 day(s).
| Time | Temp. | Humidity | Pressure | Rain* | Wind** | Luminosity | Snow |
|---|---|---|---|---|---|---|---|
| 1778190717 | 26.67° C | 15% | 1015.5 hPa | 0 mm | - | 705 W/m² | - |
| 1778190111 | 26.67° C | 15% | 1015.5 hPa | 0 mm | - | 747 W/m² | - |
| 1778189806 | 26.67° C | 15% | 1015.7 hPa | 0 mm | - | 747 W/m² | - |
| 1778189504 | 26.11° C | 15% | 1015.7 hPa | 0 mm | - | 754 W/m² | - |
| 1778189200 | 26.11° C | 15% | 1015.8 hPa | 0 mm | - | 780 W/m² | - |
| 1778188897 | 26.11° C | 15% | 1016 hPa | 0 mm | - | 780 W/m² | - |
| 1778188594 | 26.67° C | 15% | 1016.1 hPa | 0 mm | - | 784 W/m² | - |
| 1778188289 | 25.56° C | 15% | 1016.1 hPa | 0 mm | - | 792 W/m² | - |
| 1778187988 | 26.67° C | 15% | 1016.2 hPa | 0 mm | - | 802 W/m² | - |
| 1778187684 | 26.11° C | 15% | 1016.5 hPa | 0 mm | - | 812 W/m² | - |
| 1778187381 | 26.11° C | 15% | 1016.4 hPa | 0 mm | - | 820 W/m² | - |
| 1778187077 | 25.56° C | 16% | 1016.5 hPa | 0 mm | - | 828 W/m² | - |
| 1778186773 | 25.56° C | 15% | 1016.6 hPa | 0 mm | - | 836 W/m² | - |
| 1778186471 | 24.44° C | 16% | 1016.8 hPa | 0 mm | - | 842 W/m² | - |
| 1778186169 | 25.56° C | 16% | 1017.1 hPa | 0 mm | - | 847 W/m² | - |
| 1778185866 | 24.44° C | 16% | 1016.9 hPa | 0 mm | - | 852 W/m² | - |
| 1778185561 | 25° C | 16% | 1017 hPa | 0 mm | - | 858 W/m² | - |
| 1778185258 | 24.44° C | 17% | 1017.1 hPa | 0 mm | - | 863 W/m² | - |
| 1778184953 | 24.44° C | 17% | 1017.2 hPa | 0 mm | - | 867 W/m² | - |
| 1778184650 | 24.44° C | 16% | 1017.3 hPa | 0 mm | - | 870 W/m² | - |
| 1778184345 | 25° C | 17% | 1017.3 hPa | 0 mm | - | 873 W/m² | - |
| 1778184042 | 25° C | 16% | 1017.4 hPa | 0 mm | - | 874 W/m² | - |
| 1778183739 | 25° C | 17% | 1017.5 hPa | 0 mm | - | 875 W/m² | - |
| 1778183437 | 24.44° C | 16% | 1017.7 hPa | 0 mm | - | 877 W/m² | - |
| 1778183133 | 25.56° C | 16% | 1017.5 hPa | 0 mm | - | 879 W/m² | - |
* Rain latest hour (hover to see other rain measurements)
** Current wind speed in m/s (hover to see current wind gust speed)